GW0768 Weather Reports


Display with metric or nautical units.
time (UTC)temp
F
wind
direction
speed
MPH
gust
MPH
rain 1hr
in
rain 24hr
in
rain mn
in
humidity
%
barometer
mb
20260506044316 49 45 7.0 10.0 0.00 0.00 0.00 78 1012.1
20260506043316 49 45 6.0 11.0 0.00 0.00 0.00 79 1011.9
20260506042336 49 0 6.0 11.0 0.00 0.00 0.00 80 1012.1
20260506041315 49 23 7.0 12.0 0.00 0.00 0.00 81 1011.9
20260506040316 49 23 5.0 10.0 0.00 0.00 0.00 82 1011.8
20260506035315 49 23 5.0 8.0 0.00 0.00 0.00 82 1011.8
20260506034315 49 23 5.0 10.0 0.00 0.00 0.00 83 1011.7
20260506033315 49 23 5.0 8.0 0.00 0.00 0.00 83 1011.6
20260506032315 49 45 5.0 8.0 0.00 0.00 0.00 82 1011.3
20260506031315 49 45 9.0 12.0 0.00 0.00 0.00 82 1010.9
20260506030315 49 23 6.0 14.0 0.00 0.00 0.00 82 1010.9
20260506025335 49 0 9.0 13.0 0.00 0.00 0.00 82 1010.8
20260506024315 49 0 8.0 11.0 0.00 0.00 0.00 82 1010.4
20260506023315 49 23 10.0 15.0 0.00 0.00 0.00 82 1010.1
20260506022315 49 0 9.0 13.0 0.00 0.00 0.00 82 1010.2
20260506021315 49 23 6.0 10.0 0.00 0.00 0.00 81 1010.1
20260506020315 50 23 9.0 13.0 0.00 0.00 0.00 80 1009.9
20260506015316 50 0 6.0 9.0 0.00 0.00 0.00 80 1009.6
20260506014317 50 23 5.0 8.0 0.00 0.00 0.00 79 1009.6
20260506013317 50 0 10.0 15.0 0.00 0.00 0.00 78 1009.8
20260506012317 51 0 12.0 14.0 0.00 0.00 0.00 77 1009.4
20260506011317 51 23 7.0 11.0 0.00 0.00 0.00 76 1009.3
20260506010337 51 23 9.0 12.0 0.00 0.00 0.00 76 1009.2
20260506005315 51 23 4.0 8.0 0.00 0.00 0.00 75 1009.1
20260506004317 51 45 7.0 10.0 0.00 0.00 0.00 75 1008.4
20260506003317 52 45 7.0 11.0 0.00 0.00 0.00 76 1008.2
20260506002317 52 45 6.0 10.0 0.00 0.00 0.00 76 1008.3
20260506001317 52 23 5.0 9.0 0.00 0.00 0.00 76 1008.1
20260506000317 52 23 10.0 18.0 0.00 0.00 0.00 76 1008.1
20260505235318 52 23 8.0 11.0 0.00 0.00 0.00 76 1008.3
20260505234317 52 23 7.0 11.0 0.00 0.00 0.00 76 1007.9
20260505233317 53 23 8.0 14.0 0.00 0.00 0.00 76 1008.2
20260505232317 53 0 10.0 14.0 0.00 0.00 0.00 76 1007.9
20260505231337 53 23 11.0 13.0 0.00 0.00 0.00 76 1008.2
20260505230317 53 0 11.0 14.0 0.00 0.00 0.00 76 1007.9
20260505225317 53 23 7.0 11.0 0.00 0.00 0.00 76 1008.0
20260505224317 53 0 13.0 17.0 0.00 0.00 0.00 76 1007.8
20260505223337 53 23 8.0 12.0 0.00 0.00 0.00 77 1007.7
20260505222317 53 23 9.0 11.0 0.00 0.00 0.00 77 1007.8
20260505221337 53 0 8.0 10.0 0.00 0.00 0.00 77 1007.7
20260505220317 54 23 7.0 10.0 0.00 0.00 0.00 77 1007.3
20260505215317 54 23 7.0 11.0 0.00 0.00 0.00 77 1006.9
20260505214317 54 0 11.0 15.0 0.00 0.00 0.00 78 1007.0
20260505213316 54 0 12.0 14.0 0.00 0.00 0.00 78 1007.0
20260505212317 54 23 7.0 12.0 0.00 0.00 0.00 80 1007.2
20260505211317 54 0 11.0 16.0 0.00 0.00 0.00 79 1006.5
20260505210316 54 23 10.0 14.0 0.00 0.00 0.00 80 1006.5
20260505205316 54 0 12.0 16.0 0.00 0.00 0.00 80 1006.6
20260505204317 55 0 8.0 12.0 0.00 0.00 0.00 81 1006.2
20260505203316 55 23 9.0 12.0 0.00 0.00 0.00 82 1006.3
20260505202316 55 338 11.0 14.0 0.00 0.00 0.00 81 1006.4
20260505201336 55 0 11.0 20.0 0.00 0.00 0.00 81 1006.3
20260505200316 56 0 11.0 15.0 0.00 0.00 0.00 81 1006.2
20260505195316 56 45 4.0 10.0 0.00 0.00 0.00 81 1006.2
20260505194356 56 23 8.0 14.0 0.00 0.00 0.00 80 1005.9
20260505193317 57 0 12.0 19.0 0.00 0.00 0.00 81 1005.7
20260505192316 56 23 10.0 14.0 0.00 0.00 0.00 81 1006.3
20260505191316 56 0 11.0 15.0 0.00 0.00 0.00 82 1005.9
20260505190337 57 23 10.0 16.0 0.00 0.00 0.00 81 1005.0
20260505185316 57 0 6.0 8.0 0.00 0.00 0.00 81 1005.7
20260505184317 57 23 10.0 16.0 0.00 0.00 0.00 81 1005.7
20260505183336 57 0 13.0 17.0 0.00 0.00 0.00 81 1005.4
20260505182316 57 0 12.0 14.0 0.00 0.00 0.00 81 1005.2
20260505181316 58 0 13.0 18.0 0.00 0.00 0.00 82 1005.0
20260505180316 58 23 10.0 14.0 0.00 0.00 0.00 82 1004.6
20260505175316 58 0 14.0 19.0 0.00 0.00 0.00 82 1004.3
20260505174337 59 0 12.0 17.0 0.00 0.00 0.00 81 1004.4
20260505173336 59 0 13.0 17.0 0.00 0.00 0.00 81 1004.6
20260505172316 61 338 15.0 21.0 0.00 0.00 0.00 79 1004.4
20260505171317 62 0 16.0 22.0 0.00 0.00 0.00 79 1004.0
20260505170316 64 0 11.0 16.0 0.00 0.00 0.00 79 1003.4
20260505165356 67 338 15.0 21.0 0.00 0.00 0.00 77 1003.2
20260505164316 69 338 12.0 18.0 0.00 0.00 0.00 75 1002.8
20260505163316 76 315 6.0 8.0 0.00 0.00 0.00 70 1002.8
20260505162356 75 45 3.0 3.0 0.00 0.00 0.00 71 1002.6
20260505161336 75 23 3.0 7.0 0.00 0.00 0.00 73 1002.4
20260505160315 74 0.0 1.0 0.00 0.00 0.00 73 1002.3
20260505153315 74 113 1.0 3.0 0.00 0.00 0.00 73 1001.8
20260505152316 73 0 3.0 4.0 0.00 0.00 0.00 74 1001.5
20260505151315 73 0.0 0.0 0.00 0.00 0.00 73 1001.6
20260505150316 73 293 1.0 2.0 0.00 0.00 0.00 74 1001.8
20260505140315 72 315 1.0 2.0 0.00 0.00 0.00 76 1000.9
20260505124317 69 203 4.0 7.0 0.00 0.00 0.00 80 1000.6
20260505123317 69 180 5.0 8.0 0.00 0.00 0.00 80 1000.2
20260505122337 69 225 2.0 5.0 0.00 0.00 0.00 80 1000.1
20260505121317 69 180 3.0 7.0 0.00 0.00 0.00 80 999.8
20260505120317 69 203 12.0 15.0 0.00 0.00 0.00 80 999.6
20260505115317 69 180 7.0 12.0 0.00 0.00 0.00 80 999.4
20260505114317 69 203 10.0 17.0 0.00 0.00 0.00 79 999.3
20260505113317 70 180 9.0 12.0 0.00 0.00 0.00 79 999.3
20260505112337 70 180 7.0 10.0 0.00 0.00 0.00 78 999.2
20260505111317 70 180 6.0 10.0 0.00 0.00 0.00 78 999.3
20260505110317 70 203 7.0 10.0 0.00 0.00 0.00 78 999.3
20260505101317 71 180 6.0 8.0 0.00 0.00 0.00 76 999.2
20260505100317 71 180 8.0 11.0 0.00 0.00 0.00 76 999.3
20260505095317 71 180 9.0 13.0 0.00 0.00 0.00 76 999.3
20260505094317 71 180 7.0 10.0 0.00 0.00 0.00 76 999.3
20260505093317 71 180 10.0 15.0 0.00 0.00 0.00 76 999.4
20260505092317 71 180 7.0 11.0 0.00 0.00 0.00 76 999.4
20260505091317 71 203 8.0 10.0 0.00 0.00 0.00 76 999.4
20260505090317 71 180 9.0 13.0 0.00 0.00 0.00 75 999.6
20260505085317 71 180 9.0 16.0 0.00 0.00 0.00 75 999.6
20260505084317 71 180 8.0 11.0 0.00 0.00 0.00 76 999.5
20260505083316 71 180 9.0 12.0 0.00 0.00 0.00 76 999.6
20260505082356 71 180 10.0 15.0 0.00 0.00 0.00 76 999.8
20260505081316 71 180 9.0 12.0 0.00 0.00 0.00 76 999.9
20260505080317 71 180 8.0 12.0 0.00 0.00 0.00 75 1000.0
20260505075316 71 180 9.0 14.0 0.00 0.00 0.00 75 1000.0
20260505074316 71 180 12.0 18.0 0.00 0.00 0.00 76 1000.0
20260505073317 71 180 9.0 14.0 0.00 0.00 0.00 76 1000.2
20260505072316 71 180 9.0 12.0 0.00 0.00 0.00 76 1000.4
20260505071336 71 180 10.0 13.0 0.00 0.00 0.00 76 1000.3
20260505070316 71 180 10.0 15.0 0.00 0.00 0.00 76 1000.5
20260505065316 71 203 11.0 15.0 0.00 0.00 0.00 76 1000.7
20260505064316 71 180 9.0 12.0 0.00 0.00 0.00 76 1000.5
20260505063316 71 180 11.0 15.0 0.00 0.00 0.00 76 1000.5
20260505062316 71 180 12.0 16.0 0.00 0.00 0.00 76 1000.7
20260505061316 71 180 10.0 13.0 0.00 0.00 0.00 76 1000.8
20260505060316 71 180 9.0 15.0 0.00 0.00 0.00 75 1001.0
20260505055356 71 180 10.0 13.0 0.00 0.00 0.00 75 1001.2
20260505054316 71 180 9.0 12.0 0.00 0.00 0.00 75 1001.3
20260505053316 71 180 6.0 8.0 0.00 0.00 0.00 75 1001.3
20260505052336 71 180 7.0 9.0 0.00 0.00 0.00 75 1001.2
20260505051316 71 180 8.0 17.0 0.00 0.00 0.00 75 1001.2
20260505050316 71 180 10.0 15.0 0.00 0.00 0.00 74 1001.4